Location: Bouchavesnes-Bergen
(49.9859°N, 2.9203°E)
Time: 11:46:41
(UTC+00:00)

NOSS 3-4 (C) - Pass Details

Date: 09 March 2021
Orbit: 873 x 1339 km, 63.4° (Epoch: 13 April)

Event Time Altitude Azimuth Distance (km) Brightness Sun altitude
Exits shadow 04:16:36 11° 194° (SSW) 2,440 5.3 -19.6°
Maximum altitude 04:21:55 48° 122° (ESE) 1,175 4.2 -18.8°
Drops below altitude 10° 04:27:53 10° 50° (NE) 2,719 6.8 -17.9°
Sets 04:30:39 0° 45° (NE) 3,734 7.6 -17.4°
